This is the latest recevied weather packets stored in our database for station/object F6BIJ-13. If no packets are shown the sender has not sent any weather packets the latest 10 day(s).
| Time | Temp. | Humidity | Pressure | Rain* | Wind** | Luminosity | Snow |
|---|---|---|---|---|---|---|---|
| 1777595438 | 12.22° C | 89% | 1023 hPa | 0 mm | - | - | - |
| 1777595077 | 11.67° C | 88% | 1022.9 hPa | 0 mm | - | - | - |
| 1777594717 | 12.22° C | 88% | 1022.8 hPa | 0 mm | - | - | - |
| 1777594357 | 12.22° C | 88% | 1022.9 hPa | 0 mm | - | - | - |
| 1777593997 | 12.78° C | 87% | 1022.9 hPa | 0 mm | - | - | - |
| 1777593638 | 12.22° C | 87% | 1022.8 hPa | 0 mm | - | - | - |
| 1777593277 | 12.22° C | 87% | 1022.9 hPa | 0 mm | - | - | - |
| 1777592917 | 12.22° C | 87% | 1022.8 hPa | 0 mm | - | - | - |
| 1777592557 | 13.33° C | 87% | 1022.8 hPa | 0 mm | - | - | - |
| 1777592197 | 12.22° C | 87% | 1022.8 hPa | 0 mm | - | - | - |
| 1777591838 | 12.22° C | 88% | 1022.9 hPa | 0 mm | - | - | - |
| 1777591478 | 12.22° C | 87% | 1022.8 hPa | 0 mm | - | - | - |
| 1777591117 | 12.22° C | 87% | 1022.8 hPa | 0 mm | - | - | - |
| 1777590757 | 12.22° C | 87% | 1022.8 hPa | 0 mm | - | - | - |
| 1777590397 | 12.78° C | 86% | 1022.7 hPa | 0 mm | - | - | - |
| 1777590037 | 12.78° C | 86% | 1022.7 hPa | 0 mm | - | - | - |
| 1777589677 | 13.33° C | 85% | 1022.7 hPa | 0 mm | - | - | - |
| 1777589317 | 13.33° C | 84% | 1022.7 hPa | 0 mm | - | - | - |
| 1777588957 | 12.78° C | 84% | 1022.6 hPa | 0 mm | - | - | - |
| 1777588597 | 13.33° C | 84% | 1022.5 hPa | 0 mm | - | - | - |
| 1777588237 | 12.78° C | 84% | 1022.4 hPa | 0 mm | - | - | - |
| 1777587877 | 13.33° C | 85% | 1022.4 hPa | 0 mm | - | - | - |
| 1777587517 | 13.33° C | 85% | 1022.2 hPa | 0 mm | - | - | - |
| 1777587157 | 13.33° C | 85% | 1022.3 hPa | 0 mm | - | - | - |
| 1777586797 | 13.33° C | 84% | 1022.3 hPa | 0 mm | - | - | - |
* Rain latest 24 hours (hover to see other rain measurements)
** Current wind speed in m/s (hover to see current wind gust speed)